Home   Weather   Pasco   Past weeks

Flag for USA Past Weather in Pasco, Washington, USA — Yesterday and Last 2 Weeks

Now
53 °F

Clear.


Feels Like: 49 °F
Forecast: 47 / 59 °F
Wind: 14 mph from Southwest

Location: Tri-Cities Airport

Current Time: Apr 24, 2017 at 12:33:05 am

Latest Report: Apr 23, 2017 at 11:53 pm


Visibility: 10 mi

Pressure: 29.79 "Hg

Humidity: 56%

Dew Point: 38 °F

Location of PascoLocation

Past Weather in Pasco — Graph

°F

Pasco Temperature Yesterday

Maximum temperature yesterday: 67 °F (at 2:53 pm)
Minimum temperature yesterday: 50 °F (at 4:53 am)
Average temperature yesterday: 58 °F

High & Low Weather Summary for the Past Weeks

 TemperatureHumidityPressure
High70 °F (Apr 22, 3:53 pm)96% (Apr 12, 11:53 pm)30.39 "Hg (Apr 12, 11:53 pm)
Low28 °F (Apr 11, 4:53 am)20% (Apr 10, 5:53 pm)29.64 "Hg (Apr 12, 11:53 pm)
Average53 °F59%30.00 "Hg
* Reported Apr 8 10:53 pm — Apr 23 10:53 pm, Pasco, Weather by CustomWeather, © 2017

Note: Actual official high and low records may vary slightly from our data, if they occured in-between our weather recording intervals... More about our weather records

Advertising

Pasco Weather History for the Previous 24 Hours

Scroll right to see more
 ConditionsComfort  
Time TempWeatherWind HumidityBarometerVisibility
10:53 pm
Sun, Apr 23
54 °FPassing clouds.15 mph53%29.79 "Hg10 mi
9:53 pm55 °FClear.12 mph49%29.80 "Hg10 mi
8:53 pm55 °FPassing clouds.3 mph55%29.80 "Hg10 mi
7:53 pm57 °FBroken clouds.8 mph49%29.80 "Hg10 mi
6:53 pm59 °FScattered clouds.13 mph49%29.80 "Hg10 mi
5:53 pm61 °FMostly cloudy.17 mph42%29.79 "Hg10 mi
4:53 pm65 °FScattered clouds.12 mph32%29.78 "Hg10 mi
3:53 pm66 °FScattered clouds.14 mph33%29.79 "Hg10 mi
2:53 pm67 °FPassing clouds.13 mph29%29.81 "Hg10 mi
1:53 pm65 °FPassing clouds.12 mph34%29.83 "Hg10 mi
12:53 pm64 °FSunny.17 mph33%29.85 "Hg10 mi
11:53 am64 °FSunny.18 mph34%29.87 "Hg10 mi
10:53 am63 °FSunny.17 mph37%29.88 "Hg10 mi
9:53 am60 °FSunny.13 mph46%29.89 "Hg10 mi
8:53 am56 °FOvercast.14 mph55%29.90 "Hg10 mi
7:53 am53 °FPartly sunny.N/A61%29.90 "Hg10 mi
6:53 am52 °FOvercast.9 mph61%29.90 "Hg10 mi
5:53 am52 °FMostly cloudy.3 mph64%29.90 "Hg10 mi
4:53 am50 °FOvercast.No wind71%29.90 "Hg10 mi
3:53 am52 °FPassing clouds.5 mph61%29.91 "Hg10 mi
2:53 am53 °FPassing clouds.No wind59%29.91 "Hg10 mi
1:53 am52 °FOvercast.5 mph61%29.90 "Hg10 mi
12:53 am55 °FPassing clouds.15 mph51%29.90 "Hg10 mi
Weather by CustomWeather, © 2017

See weather overviewHow to use our weather pages